When you browse on this site, cookies collect data to enhance your experience and personalize the content and advertising you see.
Visit our Privacy Policy to learn more. By continuing to use the site, you agree to this use of cookies and data.
  • In Latvia
  • List of Countries
  • For 7 days
  • Water Temperature
  • Weather Map
  • Weather Widgets
  • user-avatar
    Login

    Hourly Weather Krukowka

    Today, 7 June, Sunday

    Time Temperature Precipitation Wind Pressure Humidity
    00:00 +16°C° 0.5 mm 2 mps 740 mmHg 89%
    01:00 +16°C° 0.5 mm 3 mps 740 mmHg 91%
    02:00 +15°C° 0.1 mm 2 mps 740 mmHg 92%
    03:00 +15°C° 0.1 mm 2 mps 740 mmHg 93%
    04:00 +14°C° 0.1 mm 2 mps 740 mmHg 94%
    05:00 +16°C° 0 mm 2 mps 740 mmHg 91%
    06:00 +17°C° 0 mm 2 mps 740 mmHg 88%
    07:00 +19°C° 0 mm 2 mps 740 mmHg 85%
    08:00 +20°C° 0 mm 3 mps 739 mmHg 79%
    09:00 +22°C° 0 mm 3 mps 739 mmHg 74%
    10:00 +24°C° 0 mm 3 mps 739 mmHg 68%
    11:00 +25°C° 0.6 mm 3 mps 739 mmHg 65%
    12:00 +26°C° 0.6 mm 3 mps 739 mmHg 62%
    13:00 +27°C° 0.6 mm 3 mps 739 mmHg 59%
    14:00 +26°C° 1 mm 2 mps 739 mmHg 62%
    15:00 +26°C° 1 mm 2 mps 739 mmHg 65%
    16:00 +25°C° 1 mm 1 mps 738 mmHg 69%
    17:00 +24°C° 0.4 mm 1 mps 738 mmHg 72%
    18:00 +23°C° 0.4 mm 1 mps 738 mmHg 76%
    19:00 +22°C° 0.4 mm 1 mps 738 mmHg 80%
    20:00 +22°C° 0.7 mm 1 mps 738 mmHg 82%
    21:00 +21°C° 0.7 mm 1 mps 738 mmHg 85%
    22:00 +19°C° 0.7 mm 2 mps 739 mmHg 87%
    23:00 +19°C° 0.5 mm 2 mps 738 mmHg 88%

    Tomorrow, 8 June, Monday

    Time Temperature Precipitation Wind Pressure Humidity
    00:00 +18°C° 0.5 mm 2 mps 738 mmHg 89%
    01:00 +18°C° 0.5 mm 2 mps 738 mmHg 90%
    02:00 +17°C° 0.3 mm 2 mps 738 mmHg 92%
    03:00 +17°C° 0.3 mm 2 mps 738 mmHg 93%
    04:00 +17°C° 0.3 mm 2 mps 737 mmHg 94%
    05:00 +18°C° 0.4 mm 2 mps 738 mmHg 92%
    06:00 +19°C° 0.4 mm 2 mps 738 mmHg 89%
    07:00 +20°C° 0.4 mm 2 mps 738 mmHg 86%
    08:00 +21°C° 0 mm 2 mps 739 mmHg 81%
    09:00 +23°C° 0 mm 2 mps 739 mmHg 76%
    10:00 +25°C° 0 mm 3 mps 739 mmHg 70%
    11:00 +24°C° 1.4 mm 3 mps 739 mmHg 74%
    12:00 +22°C° 1.4 mm 3 mps 739 mmHg 78%
    13:00 +22°C° 1.4 mm 3 mps 739 mmHg 81%
    14:00 +21°C° 1 mm 3 mps 739 mmHg 83%
    15:00 +21°C° 1 mm 4 mps 740 mmHg 85%
    16:00 +20°C° 1 mm 4 mps 740 mmHg 87%
    17:00 +19°C° 0.1 mm 4 mps 740 mmHg 89%
    18:00 +18°C° 0.1 mm 4 mps 740 mmHg 91%
    19:00 +17°C° 0.1 mm 4 mps 740 mmHg 94%
    20:00 +17°C° 0 mm 4 mps 741 mmHg 94%
    21:00 +15°C° 0 mm 4 mps 741 mmHg 94%
    22:00 +15°C° 0 mm 4 mps 741 mmHg 94%
    23:00 +14°C° 0 mm 4 mps 742 mmHg 94%

    Day after tomorrow, 9 June, Tuesday

    Time Temperature Precipitation Wind Pressure Humidity
    00:00 +14°C° 0 mm 4 mps 742 mmHg 94%
    01:00 +14°C° 0 mm 4 mps 742 mmHg 94%
    02:00 +13°C° 0 mm 4 mps 742 mmHg 94%
    03:00 +13°C° 0 mm 3 mps 742 mmHg 94%
    04:00 +13°C° 0 mm 3 mps 742 mmHg 94%
    05:00 +13°C° 0 mm 3 mps 742 mmHg 94%
    06:00 +13°C° 0 mm 3 mps 743 mmHg 93%
    07:00 +13°C° 0 mm 3 mps 743 mmHg 92%
    08:00 +14°C° 0 mm 3 mps 743 mmHg 92%
    09:00 +14°C° 0 mm 3 mps 743 mmHg 91%
    10:00 +14°C° 0 mm 3 mps 744 mmHg 90%
    11:00 +16°C° 0 mm 3 mps 743 mmHg 87%
    12:00 +17°C° 0 mm 3 mps 743 mmHg 85%
    13:00 +18°C° 0 mm 3 mps 743 mmHg 82%
    14:00 +19°C° 0 mm 3 mps 743 mmHg 82%
    15:00 +19°C° 0 mm 3 mps 743 mmHg 82%
    16:00 +19°C° 0 mm 3 mps 743 mmHg 82%
    17:00 +19°C° 0 mm 3 mps 743 mmHg 84%
    18:00 +18°C° 0 mm 3 mps 743 mmHg 87%
    19:00 +18°C° 0 mm 2 mps 743 mmHg 89%
    20:00 +17°C° 0 mm 3 mps 743 mmHg 90%
    21:00 +17°C° 0 mm 3 mps 743 mmHg 90%
    22:00 +17°C° 0 mm 3 mps 743 mmHg 91%
    23:00 +16°C° 0 mm 3 mps 743 mmHg 91%

    10 June, Wednesday

    Time Temperature Precipitation Wind Pressure Humidity
    00:00 +15°C° 0 mm 4 mps 743 mmHg 92%
    01:00 +14°C° 0 mm 4 mps 742 mmHg 92%
    02:00 +13°C° 0 mm 4 mps 742 mmHg 93%
    03:00 +13°C° 0 mm 3 mps 742 mmHg 94%
    04:00 +12°C° 0 mm 3 mps 742 mmHg 95%
    05:00 +13°C° 0 mm 3 mps 742 mmHg 94%
    06:00 +13°C° 0 mm 3 mps 742 mmHg 93%
    07:00 +13°C° 0 mm 3 mps 742 mmHg 92%
    08:00 +14°C° 0 mm 3 mps 742 mmHg 91%
    09:00 +14°C° 0 mm 3 mps 742 mmHg 90%
    10:00 +16°C° 0 mm 3 mps 742 mmHg 89%
    11:00 +16°C° 0 mm 3 mps 742 mmHg 88%
    12:00 +17°C° 0 mm 2 mps 742 mmHg 88%
    13:00 +17°C° 0 mm 2 mps 741 mmHg 88%
    14:00 +17°C° 0 mm 2 mps 741 mmHg 88%
    15:00 +17°C° 0 mm 2 mps 741 mmHg 89%
    16:00 +18°C° 0 mm 2 mps 741 mmHg 89%
    17:00 +17°C° 0 mm 2 mps 741 mmHg 91%
    18:00 +17°C° 0 mm 2 mps 741 mmHg 93%
    19:00 +17°C° 0 mm 2 mps 741 mmHg 95%
    20:00 +18°C° 0 mm 1 mps 741 mmHg 96%
    21:00 +18°C° 0 mm 1 mps 741 mmHg 96%
    22:00 +16°C° 0 mm 1 mps 741 mmHg 97%
    23:00 +16°C° 0 mm 1 mps 741 mmHg 97%

    11 June, Thursday

    Time Temperature Precipitation Wind Pressure Humidity
    00:00 +16°C° 0 mm 1 mps 741 mmHg 97%
    01:00 +15°C° 0 mm 1 mps 740 mmHg 98%
    02:00 +15°C° 0 mm 1 mps 740 mmHg 98%
    03:00 +15°C° 0 mm 1 mps 740 mmHg 98%
    04:00 +16°C° 0 mm 1 mps 740 mmHg 98%
    05:00 +16°C° 0 mm 1 mps 740 mmHg 96%
    06:00 +18°C° 0 mm 1 mps 740 mmHg 94%
    07:00 +19°C° 0 mm 1 mps 740 mmHg 91%
    08:00 +20°C° 0 mm 1 mps 740 mmHg 87%
    09:00 +21°C° 0 mm 1 mps 740 mmHg 82%
    10:00 +23°C° 0 mm 1 mps 740 mmHg 77%
    11:00 +23°C° 0 mm 1 mps 740 mmHg 74%
    12:00 +24°C° 0 mm 1 mps 740 mmHg 70%
    13:00 +25°C° 0 mm 2 mps 740 mmHg 67%
    14:00 +26°C° 0 mm 2 mps 739 mmHg 67%
    15:00 +26°C° 0 mm 2 mps 739 mmHg 67%
    16:00 +26°C° 0 mm 2 mps 739 mmHg 67%
    17:00 +25°C° 1 mm 2 mps 739 mmHg 73%
    18:00 +24°C° 1 mm 2 mps 739 mmHg 79%
    19:00 +21°C° 1 mm 2 mps 739 mmHg 84%
    20:00 +21°C° 0.7 mm 2 mps 739 mmHg 87%
    21:00 +20°C° 0.7 mm 2 mps 739 mmHg 89%
    22:00 +19°C° 0.7 mm 2 mps 739 mmHg 92%
    23:00 +19°C° 0.2 mm 2 mps 739 mmHg 92%

    12 June, Friday

    Time Temperature Precipitation Wind Pressure Humidity
    00:00 +18°C° 0.2 mm 2 mps 739 mmHg 91%
    01:00 +19°C° 0.2 mm 1 mps 739 mmHg 91%
    02:00 +19°C° 0 mm 1 mps 739 mmHg 91%
    03:00 +19°C° 0 mm 1 mps 739 mmHg 91%
    04:00 +18°C° 0 mm 1 mps 739 mmHg 90%
    05:00 +20°C° 0 mm 1 mps 739 mmHg 87%
    06:00 +21°C° 0 mm 1 mps 739 mmHg 83%
    07:00 +23°C° 0 mm 1 mps 739 mmHg 79%
    08:00 +24°C° 0 mm 1 mps 739 mmHg 74%
    09:00 +25°C° 0 mm 2 mps 739 mmHg 70%
    10:00 +27°C° 0 mm 2 mps 739 mmHg 65%
    11:00 +27°C° 0.2 mm 3 mps 739 mmHg 64%
    12:00 +28°C° 0.2 mm 3 mps 739 mmHg 63%
    13:00 +28°C° 0.2 mm 4 mps 739 mmHg 62%
    14:00 +28°C° 0.2 mm 4 mps 739 mmHg 62%
    15:00 +29°C° 0.2 mm 3 mps 739 mmHg 63%
    16:00 +29°C° 0.2 mm 3 mps 739 mmHg 63%
    17:00 +27°C° 0.5 mm 3 mps 739 mmHg 68%
    18:00 +26°C° 0.5 mm 2 mps 738 mmHg 74%
    19:00 +25°C° 0.5 mm 2 mps 738 mmHg 80%
    20:00 +24°C° 0 mm 2 mps 738 mmHg 82%
    21:00 +21°C° 0 mm 2 mps 738 mmHg 84%
    22:00 +20°C° 0 mm 2 mps 739 mmHg 86%
    23:00 +20°C° 0 mm 2 mps 738 mmHg 88%
    Show more